Weather History for Billings, MT

Change the Weather History Date:

Monday, March 19, 2012

  Actual Average Record
Temperature  
Mean Temperature 37 °F 39 °F  
Max Temperature 41 °F 50 °F 75 °F (1997)
Min Temperature 32 °F 28 °F 3 °F (1965)
Degree Days  
Heating Degree Days 28 26  
Month to date heating degree days 370 548  
Since 1 July heating degree days 4878 5513  
Cooling Degree Days 0 0  
Month to date cooling degree days 0 0  
Year to date cooling degree days 0 0  
Moisture  
Dew Point 29 °F    
Average Humidity 80    
Maximum Humidity 100    
Minimum Humidity 59    
Precipitation  
Precipitation 0.59 in 0.03 in 0.83 in (1982)
Month to date precipitation 0.70 0.56  
Year to date precipitation 1.55 1.52  
Snow  
Snow 4.70 in 0.30 in 9.50 in (1982)
Month to date snowfall 5.9 6.1  
Since 1 July snowfall 34.7 40.6  
Snow Depth 1.00 in    
Sea Level Pressure  
Sea Level Pressure 29.43 in    
Wind  
Wind Speed 17 mph (WNW)    
Max Wind Speed 28 mph    
Max Gust Speed 39 mph    
Visibility 6 miles    
Events Fog , Rain , Snow    
T = Trace of Precipitation, MM = Missing Value Source: NWS Daily Summary

Daily Weather History Graph

Daily Weather History Graph

Search for Another Location

Airport:

Trip Planner

Search our weather history database for the weather conditions in past years. The results will help you decide how hot, cold, wet, or windy it might be!

Date:

Astronomy

Mar. 19, 2012 Rise Set
Actual Time 7:18 AM MDT 7:26 PM MDT
Civil Twilight 6:48 AM MDT 7:55 PM MDT
Nautical Twilight 6:13 AM MDT 8:30 PM MDT
Astronomical Twilight 5:37 AM MDT 9:06 PM MDT
Moon 5:39 AM MDT (3/19) 4:51 PM MDT (3/19)
Length of Visible Light 13h 07m
Length of Day
12h 08m
Waning Crescent, 8% of the Moon is Illuminated
Mar 19
Waning Crescent
Mar 22
New
Mar 30
First Quarter
Apr 6
Full
Apr 13
Last Quarter

Hourly Weather History & Observations

Time (MDT) Temp. Windchill Dew Point Humidity Pressure Visibility Wind Dir Wind Speed Gust Speed Precip Events Conditions
12:53 AM 41.0 °F 35.8 °F 34.0 °F 76% 29.26 in 10.0 mi North 8.1 mph - 0.01 in Rain Light Rain
1:16 AM 39.2 °F 35.0 °F 35.6 °F 87% 29.26 in 9.0 mi NW 5.8 mph - 0.01 in Rain Light Rain
1:53 AM 37.9 °F 30.0 °F 35.1 °F 89% 29.28 in 8.0 mi NW 12.7 mph - 0.05 in Rain Light Rain
2:11 AM 37.4 °F 30.3 °F 33.8 °F 87% 29.27 in 5.0 mi West 10.4 mph - 0.03 in Rain Rain
2:53 AM 35.1 °F 26.4 °F 33.1 °F 92% 29.27 in 10.0 mi NW 12.7 mph - 0.06 in Rain , Snow Light Rain
3:53 AM 33.1 °F 26.9 °F 32.0 °F 96% 29.26 in 3.0 mi NW 6.9 mph - 0.04 in Snow Light Snow
3:59 AM 33.8 °F 27.7 °F 32.0 °F 93% 29.25 in 1.0 mi NW 6.9 mph - 0.01 in Snow Light Snow
4:06 AM 33.8 °F 27.7 °F 32.0 °F 93% 29.25 in 1.8 mi NW 6.9 mph - 0.02 in Snow Light Snow
4:25 AM 32.0 °F 27.5 °F 32.0 °F 100% 29.25 in 1.0 mi NW 4.6 mph - 0.04 in Snow Light Snow
4:34 AM 32.0 °F 26.4 °F 32.0 °F 100% 29.25 in 0.8 mi WNW 5.8 mph - 0.07 in Snow Light Snow
4:53 AM 32.0 °F 25.6 °F 32.0 °F 100% 29.27 in 0.8 mi WNW 6.9 mph - 0.11 in Snow Light Snow
5:53 AM 32.0 °F 21.2 °F 30.9 °F 96% 29.29 in 0.8 mi WNW 16.1 mph 21.9 mph 0.10 in Snow Light Snow
6:53 AM 32.0 °F 20.1 °F 30.9 °F 96% 29.30 in 0.5 mi WNW 19.6 mph - 0.11 in Fog , Snow Snow
7:53 AM 32.0 °F 20.5 °F 30.9 °F 96% 29.33 in 0.5 mi West 18.4 mph - 0.06 in Fog , Snow Snow
9:21 AM 32.0 °F 19.5 °F 30.2 °F 93% 29.33 in 1.0 mi West 21.9 mph 29.9 mph 0.01 in Snow Light Snow
9:53 AM 32.0 °F 20.5 °F 30.0 °F 92% 29.37 in 1.0 mi West 18.4 mph - 0.02 in Snow Light Snow
10:02 AM 32.0 °F 20.8 °F 30.2 °F 93% 29.34 in 1.0 mi WSW 17.3 mph 26.5 mph 0.00 in Snow Light Snow
10:23 AM 33.8 °F 24.3 °F 30.2 °F 87% 29.34 in 6.0 mi WSW 13.8 mph 26.5 mph 0.00 in Snow Light Snow
10:49 AM 33.8 °F 22.8 °F 28.4 °F 81% 29.35 in 10.0 mi West 18.4 mph 24.2 mph 0.00 in Snow Light Snow
10:53 AM 34.0 °F 22.7 °F 28.9 °F 82% 29.38 in 10.0 mi West 19.6 mph 26.5 mph 0.00 in Snow Light Snow
11:53 AM 35.1 °F 23.0 °F 28.0 °F 76% 29.42 in 10.0 mi West 24.2 mph 28.8 mph 0.00 in   Overcast
12:53 PM 36.0 °F 23.7 °F 25.0 °F 64% 29.46 in 10.0 mi WNW 26.5 mph 33.4 mph N/A   Overcast
1:53 PM 37.0 °F 27.0 °F 25.0 °F 62% 29.49 in 10.0 mi WNW 18.4 mph - N/A   Overcast
2:53 PM 37.0 °F 28.1 °F 26.1 °F 65% 29.53 in 10.0 mi West 15.0 mph 23.0 mph N/A   Overcast
3:53 PM 37.0 °F 26.2 °F 27.0 °F 67% 29.57 in 10.0 mi West 21.9 mph - N/A   Overcast
4:53 PM 37.0 °F 26.2 °F 27.0 °F 67% 29.61 in 10.0 mi West 21.9 mph - N/A   Overcast
5:53 PM 37.0 °F 28.1 °F 26.1 °F 65% 29.64 in 10.0 mi West 15.0 mph - N/A   Overcast
6:53 PM 36.0 °F 26.3 °F 25.0 °F 64% 29.67 in 10.0 mi WNW 16.1 mph - N/A   Overcast
7:53 PM 35.1 °F 26.4 °F 26.1 °F 70% 29.71 in 10.0 mi West 12.7 mph - N/A   Overcast
8:53 PM 35.1 °F 25.5 °F 25.0 °F 67% 29.73 in 10.0 mi NW 15.0 mph - N/A   Scattered Clouds
9:53 PM 35.1 °F 25.2 °F 24.1 °F 64% 29.76 in 10.0 mi WNW 16.1 mph - N/A   Partly Cloudy
10:53 PM 33.1 °F 21.9 °F 21.9 °F 64% 29.76 in 10.0 mi WNW 18.4 mph - N/A   Partly Cloudy
11:53 PM 32.0 °F 23.0 °F 21.0 °F 64% 29.78 in 10.0 mi West 11.5 mph - N/A   Clear